Time,TemperatureF,DewpointF,PressureIn,WindDirection,WindDirectionDegrees,WindSpeedMPH,WindSpeedGustMPH,Humidity,HourlyPrecipIn,Conditions,Clouds,dailyrainin,SoftwareType,DateUTC
2013-06-04 00:02:00,63.0,46.9,30.08,South,182,1.0,6.0,56,0.00,,,0.00,meteohub,2013-06-04 05:02:00,
2013-06-04 00:07:00,63.0,46.9,30.08,South,182,2.0,6.0,56,0.00,,,0.00,meteohub,2013-06-04 05:07:00,
2013-06-04 00:12:00,63.1,47.7,30.08,South,191,1.0,6.0,57,0.00,,,0.00,meteohub,2013-06-04 05:12:00,
2013-06-04 00:17:00,63.1,47.7,30.08,South,185,0.0,8.0,57,0.00,,,0.00,meteohub,2013-06-04 05:17:00,
2013-06-04 00:22:00,63.0,47.5,30.08,SSW,196,0.0,8.0,57,0.00,,,0.00,meteohub,2013-06-04 05:22:00,
2013-06-04 00:27:00,63.0,47.5,30.07,South,188,4.0,8.0,57,0.00,,,0.00,meteohub,2013-06-04 05:27:00,
2013-06-04 00:32:00,63.0,47.5,30.06,SSW,198,5.0,7.0,57,0.00,,,0.00,meteohub,2013-06-04 05:32:00,
2013-06-04 00:37:00,63.0,47.5,30.06,SSW,196,0.0,7.0,57,0.00,,,0.00,meteohub,2013-06-04 05:37:00,
2013-06-04 00:42:00,63.0,47.5,30.06,SSW,197,1.0,7.0,57,0.00,,,0.00,meteohub,2013-06-04 05:42:00,
2013-06-04 00:47:00,62.8,47.3,30.06,South,190,4.0,7.0,57,0.00,,,0.00,meteohub,2013-06-04 05:47:00,
2013-06-04 00:52:00,62.8,47.3,30.06,SSW,200,0.0,9.0,57,0.00,,,0.00,meteohub,2013-06-04 05:52:00,
2013-06-04 00:57:00,62.8,47.3,30.06,SSW,200,4.0,9.0,57,0.00,,,0.00,meteohub,2013-06-04 05:57:00,
2013-06-04 01:02:00,62.8,47.3,30.06,SSW,200,3.0,9.0,57,0.00,,,0.00,meteohub,2013-06-04 06:02:00,
2013-06-04 01:07:00,62.6,47.7,30.06,SSW,200,5.0,8.0,58,0.00,,,0.00,meteohub,2013-06-04 06:07:00,
2013-06-04 01:12:00,62.4,46.9,30.06,SSW,200,3.0,7.0,57,0.00,,,0.00,meteohub,2013-06-04 06:12:00,
2013-06-04 01:17:00,62.4,46.9,30.05,SSW,199,4.0,7.0,57,0.00,,,0.00,meteohub,2013-06-04 06:17:00,
2013-06-04 01:22:00,62.2,46.8,30.05,SSW,200,2.0,7.0,57,0.00,,,0.00,meteohub,2013-06-04 06:22:00,
2013-06-04 01:27:00,62.2,47.3,30.05,SSW,200,0.0,6.0,58,0.00,,,0.00,meteohub,2013-06-04 06:27:00,
2013-06-04 01:32:00,62.1,47.1,30.04,SSW,200,2.0,6.0,58,0.00,,,0.00,meteohub,2013-06-04 06:32:00,
2013-06-04 01:37:00,61.9,46.9,30.04,SSW,209,0.0,6.0,58,0.00,,,0.00,meteohub,2013-06-04 06:37:00,
2013-06-04 01:42:00,61.9,46.9,30.04,SSW,210,1.0,10.0,58,0.00,,,0.00,meteohub,2013-06-04 06:42:00,
2013-06-04 01:47:00,61.5,46.6,30.04,SSW,210,4.0,10.0,58,0.00,,,0.00,meteohub,2013-06-04 06:47:00,
2013-06-04 01:52:00,61.5,46.6,30.04,SSW,210,3.0,10.0,58,0.00,,,0.00,meteohub,2013-06-04 06:52:00,
2013-06-04 01:57:00,61.5,46.6,30.05,SSW,209,2.0,10.0,58,0.00,,,0.00,meteohub,2013-06-04 06:57:00,
2013-06-04 02:02:00,61.9,46.9,30.05,SSW,207,1.0,6.0,58,0.00,,,0.00,meteohub,2013-06-04 07:02:00,
2013-06-04 02:07:00,61.9,46.9,30.05,SSW,205,3.0,9.0,58,0.00,,,0.00,meteohub,2013-06-04 07:07:00,
2013-06-04 02:12:00,61.9,47.5,30.06,SSW,205,0.0,9.0,59,0.00,,,0.00,meteohub,2013-06-04 07:12:00,
2013-06-04 02:17:00,61.9,47.5,30.07,SSW,205,2.0,9.0,59,0.00,,,0.00,meteohub,2013-06-04 07:17:00,
2013-06-04 02:23:00,61.9,47.5,30.07,SSW,205,0.0,7.0,59,0.00,,,0.00,meteohub,2013-06-04 07:23:00,
2013-06-04 02:28:00,61.9,47.5,30.08,SSW,205,0.0,5.0,59,0.00,,,0.00,meteohub,2013-06-04 07:28:00,
2013-06-04 02:33:00,61.7,47.3,30.09,SSW,205,0.0,5.0,59,0.00,,,0.00,meteohub,2013-06-04 07:33:00,
2013-06-04 02:38:00,61.5,47.1,30.09,SSW,205,0.0,4.0,59,0.00,,,0.00,meteohub,2013-06-04 07:38:00,
2013-06-04 02:43:00,61.5,47.1,30.09,SSW,205,0.0,3.0,59,0.00,,,0.00,meteohub,2013-06-04 07:43:00,
2013-06-04 02:48:00,61.5,47.1,30.10,SSW,205,0.0,3.0,59,0.00,,,0.00,meteohub,2013-06-04 07:48:00,
2013-06-04 02:53:00,61.3,47.3,30.11,SSW,205,0.0,2.0,60,0.00,,,0.00,meteohub,2013-06-04 07:53:00,
2013-06-04 02:58:00,61.3,47.3,30.11,SSW,205,0.0,1.0,60,0.00,,,0.00,meteohub,2013-06-04 07:58:00,
2013-06-04 03:03:00,61.3,47.3,30.12,SSW,205,0.0,1.0,60,0.00,,,0.00,meteohub,2013-06-04 08:03:00,
2013-06-04 03:08:00,61.2,47.1,30.11,SSW,205,0.0,1.0,60,0.00,,,0.00,meteohub,2013-06-04 08:08:00,
2013-06-04 03:13:00,61.0,47.5,30.11,SSW,205,0.0,1.0,61,0.00,,,0.00,meteohub,2013-06-04 08:13:00,
2013-06-04 03:18:00,60.6,47.1,30.10,SSW,205,0.0,1.0,61,0.00,,,0.00,meteohub,2013-06-04 08:18:00,
2013-06-04 03:23:00,60.4,47.3,30.10,SSW,205,0.0,1.0,62,0.00,,,0.00,meteohub,2013-06-04 08:23:00,
2013-06-04 03:28:00,60.4,47.3,30.10,SSW,205,1.0,1.0,62,0.00,,,0.00,meteohub,2013-06-04 08:28:00,
2013-06-04 03:33:00,60.3,47.1,30.11,SSW,205,0.0,1.0,62,0.00,,,0.00,meteohub,2013-06-04 08:33:00,
2013-06-04 03:38:00,60.3,47.7,30.11,SSW,205,0.0,1.0,63,0.00,,,0.00,meteohub,2013-06-04 08:38:00,
2013-06-04 03:43:00,60.3,47.7,30.10,SSW,205,0.0,1.0,63,0.00,,,0.00,meteohub,2013-06-04 08:43:00,
2013-06-04 03:48:00,60.1,47.8,30.10,SSW,205,0.0,2.0,64,0.00,,,0.00,meteohub,2013-06-04 08:48:00,
2013-06-04 03:53:00,60.1,47.8,30.09,SSW,205,0.0,2.0,64,0.00,,,0.00,meteohub,2013-06-04 08:53:00,
2013-06-04 03:58:00,59.9,48.0,30.09,SSW,205,0.0,3.0,65,0.00,,,0.00,meteohub,2013-06-04 08:58:00,
2013-06-04 04:03:00,59.7,47.5,30.08,SSW,205,0.0,4.0,64,0.00,,,0.00,meteohub,2013-06-04 09:03:00,
2013-06-04 04:08:00,59.7,47.5,30.08,SSW,205,0.0,4.0,64,0.00,,,0.00,meteohub,2013-06-04 09:08:00,
2013-06-04 04:13:00,59.7,48.0,30.09,SSW,205,0.0,4.0,65,0.00,,,0.00,meteohub,2013-06-04 09:13:00,
2013-06-04 04:18:00,59.7,48.0,30.09,SSW,205,0.0,4.0,65,0.00,,,0.00,meteohub,2013-06-04 09:18:00,
2013-06-04 04:23:00,59.7,48.0,30.09,SSW,205,0.0,2.0,65,0.00,,,0.00,meteohub,2013-06-04 09:23:00,
2013-06-04 04:28:00,59.5,48.2,30.09,SSW,205,0.0,2.0,66,0.00,,,0.00,meteohub,2013-06-04 09:28:00,
2013-06-04 04:33:00,59.5,48.2,30.09,SSW,205,0.0,2.0,66,0.00,,,0.00,meteohub,2013-06-04 09:33:00,
2013-06-04 04:38:00,59.5,48.2,30.09,SSW,205,0.0,1.0,66,0.00,,,0.00,meteohub,2013-06-04 09:38:00,
2013-06-04 04:43:00,59.5,48.2,30.09,SSW,205,0.0,2.0,66,0.00,,,0.00,meteohub,2013-06-04 09:43:00,
2013-06-04 04:48:00,59.5,48.2,30.09,SSW,205,0.0,2.0,66,0.00,,,0.00,meteohub,2013-06-04 09:48:00,
2013-06-04 04:53:00,59.5,48.2,30.08,SSW,205,0.0,2.0,66,0.00,,,0.00,meteohub,2013-06-04 09:53:00,
2013-06-04 04:58:00,59.4,48.0,30.08,SSW,205,1.0,4.0,66,0.00,,,0.00,meteohub,2013-06-04 09:58:00,
2013-06-04 05:03:00,59.2,47.8,30.07,SSW,205,0.0,4.0,66,0.00,,,0.00,meteohub,2013-06-04 10:03:00,
2013-06-04 05:08:00,59.0,48.0,30.06,SSW,205,0.0,4.0,67,0.00,,,0.00,meteohub,2013-06-04 10:08:00,
2013-06-04 05:13:00,59.0,48.0,30.06,SSW,205,1.0,4.0,67,0.00,,,0.00,meteohub,2013-06-04 10:13:00,
2013-06-04 05:18:00,59.0,48.0,30.06,SSW,205,1.0,4.0,67,0.00,,,0.00,meteohub,2013-06-04 10:18:00,
2013-06-04 05:23:00,59.0,48.4,30.06,SSW,205,0.0,4.0,68,0.00,,,0.00,meteohub,2013-06-04 10:23:00,
2013-06-04 05:28:00,59.0,48.4,30.06,SSW,205,0.0,4.0,68,0.00,,,0.00,meteohub,2013-06-04 10:28:00,
2013-06-04 05:33:00,59.0,48.4,30.06,SSW,205,0.0,4.0,68,0.00,,,0.00,meteohub,2013-06-04 10:33:00,
2013-06-04 05:38:00,59.0,48.4,30.05,SSW,205,0.0,4.0,68,0.00,,,0.00,meteohub,2013-06-04 10:38:00,
2013-06-04 05:43:00,59.0,48.4,30.05,SSW,205,0.0,4.0,68,0.00,,,0.00,meteohub,2013-06-04 10:43:00,
2013-06-04 05:48:00,59.0,48.4,30.04,SSW,203,3.0,5.0,68,0.00,,,0.00,meteohub,2013-06-04 10:48:00,
2013-06-04 05:53:00,59.0,48.9,30.04,SSW,202,0.0,7.0,69,0.00,,,0.00,meteohub,2013-06-04 10:53:00,
2013-06-04 05:58:00,59.0,48.9,30.04,SSW,199,0.0,7.0,69,0.00,,,0.00,meteohub,2013-06-04 10:58:00,
2013-06-04 06:03:00,59.0,48.9,30.04,SSW,199,5.0,7.0,69,0.00,,,0.00,meteohub,2013-06-04 11:03:00,
2013-06-04 06:08:00,59.0,48.9,30.04,SSW,197,0.0,6.0,69,0.00,,,0.00,meteohub,2013-06-04 11:08:00,
2013-06-04 06:13:00,59.0,48.9,30.04,SSW,202,5.0,7.0,69,0.00,,,0.00,meteohub,2013-06-04 11:13:00,
2013-06-04 06:18:00,59.0,48.9,30.04,SSW,203,4.0,8.0,69,0.00,,,0.00,meteohub,2013-06-04 11:18:00,
2013-06-04 06:23:00,59.0,49.3,30.05,SSW,208,5.0,8.0,70,0.00,,,0.00,meteohub,2013-06-04 11:23:00,
2013-06-04 06:28:00,59.0,49.3,30.05,SSW,211,0.0,8.0,70,0.00,,,0.00,meteohub,2013-06-04 11:28:00,
2013-06-04 06:33:00,59.0,49.3,30.05,SSW,213,2.0,6.0,70,0.00,,,0.00,meteohub,2013-06-04 11:33:00,
2013-06-04 06:39:00,59.0,49.6,30.06,SW,232,4.0,6.0,71,0.00,,,0.00,meteohub,2013-06-04 11:39:00,
2013-06-04 06:44:00,59.0,49.6,30.06,WSW,240,4.0,9.0,71,0.00,,,0.00,meteohub,2013-06-04 11:44:00,
2013-06-04 06:49:00,59.4,49.6,30.06,WSW,240,3.0,10.0,70,0.00,,,0.00,meteohub,2013-06-04 11:49:00,
2013-06-04 06:54:00,59.5,50.2,30.06,WSW,238,5.0,12.0,71,0.00,,,0.00,meteohub,2013-06-04 11:54:00,
2013-06-04 06:59:00,59.4,50.0,30.06,WSW,244,4.0,12.0,71,0.00,,,0.00,meteohub,2013-06-04 11:59:00,
2013-06-04 07:04:00,59.4,50.4,30.05,WSW,242,0.0,12.0,72,0.00,,,0.00,meteohub,2013-06-04 12:04:00,
2013-06-04 07:09:00,59.0,50.4,30.05,WSW,240,0.0,9.0,73,0.00,,,0.00,meteohub,2013-06-04 12:09:00,
2013-06-04 07:14:00,59.0,50.7,30.05,WSW,239,2.0,9.0,74,0.00,,,0.00,meteohub,2013-06-04 12:14:00,
2013-06-04 07:19:00,59.0,51.1,30.05,SW,223,0.0,9.0,75,0.00,,,0.00,meteohub,2013-06-04 12:19:00,
2013-06-04 07:24:00,59.0,51.1,30.05,SW,224,3.0,10.0,75,0.00,,,0.00,meteohub,2013-06-04 12:24:00,
2013-06-04 07:29:00,59.0,51.4,30.04,SW,232,4.0,10.0,76,0.00,,,0.00,meteohub,2013-06-04 12:29:00,
2013-06-04 07:34:00,58.8,51.3,30.04,SW,221,3.0,7.0,76,0.00,,,0.00,meteohub,2013-06-04 12:34:00,
2013-06-04 07:39:00,58.8,51.3,30.05,SW,221,0.0,6.0,76,0.00,,,0.00,meteohub,2013-06-04 12:39:00,
2013-06-04 07:44:00,58.8,51.3,30.05,SW,221,0.0,6.0,76,0.00,,,0.00,meteohub,2013-06-04 12:44:00,
2013-06-04 07:49:00,59.0,51.8,30.05,WNW,291,2.0,6.0,77,0.00,,,0.00,meteohub,2013-06-04 12:49:00,
2013-06-04 07:54:00,59.0,51.4,30.06,WSW,245,4.0,6.0,76,0.00,,,0.00,meteohub,2013-06-04 12:54:00,
2013-06-04 07:59:00,59.0,51.4,30.06,WSW,242,5.0,8.0,76,0.00,,,0.00,meteohub,2013-06-04 12:59:00,
2013-06-04 08:04:00,59.4,51.4,30.06,WSW,239,8.0,10.0,75,0.00,,,0.00,meteohub,2013-06-04 13:04:00,
2013-06-04 08:09:00,59.5,51.6,30.06,SW,234,4.0,10.0,75,0.00,,,0.00,meteohub,2013-06-04 13:09:00,
2013-06-04 08:14:00,59.7,51.8,30.07,WSW,242,0.0,12.0,75,0.00,,,0.00,meteohub,2013-06-04 13:14:00,
2013-06-04 08:19:00,59.7,51.4,30.06,WSW,242,2.0,12.0,74,0.00,,,0.00,meteohub,2013-06-04 13:19:00,
2013-06-04 08:24:00,60.1,52.2,30.06,SW,228,6.0,9.0,75,0.00,,,0.00,meteohub,2013-06-04 13:24:00,
2013-06-04 08:29:00,60.1,51.8,30.06,WSW,239,0.0,7.0,74,0.00,,,0.00,meteohub,2013-06-04 13:29:00,
2013-06-04 08:34:00,60.1,51.4,30.06,WSW,238,3.0,6.0,73,0.00,,,0.00,meteohub,2013-06-04 13:34:00,
2013-06-04 08:39:00,60.3,51.6,30.07,SW,232,3.0,6.0,73,0.00,,,0.00,meteohub,2013-06-04 13:39:00,
2013-06-04 08:44:00,60.3,52.0,30.08,SW,233,4.0,9.0,74,0.00,,,0.00,meteohub,2013-06-04 13:44:00,
2013-06-04 08:49:00,60.1,52.2,30.08,SW,233,1.0,9.0,75,0.00,,,0.00,meteohub,2013-06-04 13:49:00,
2013-06-04 08:54:00,60.1,52.2,30.08,SW,233,0.0,9.0,75,0.00,,,0.00,meteohub,2013-06-04 13:54:00,
2013-06-04 08:59:00,59.7,52.2,30.08,SW,233,2.0,7.0,76,0.01,,,0.01,meteohub,2013-06-04 13:59:00,
2013-06-04 09:04:00,59.5,52.3,30.08,SW,233,0.0,5.0,77,0.01,,,0.01,meteohub,2013-06-04 14:04:00,
2013-06-04 09:09:00,59.5,52.3,30.08,SW,233,0.0,5.0,77,0.01,,,0.01,meteohub,2013-06-04 14:09:00,
2013-06-04 09:14:00,59.5,52.3,30.08,SW,232,1.0,5.0,77,0.01,,,0.01,meteohub,2013-06-04 14:14:00,
2013-06-04 09:19:00,59.5,52.3,30.08,SW,232,2.0,4.0,77,0.01,,,0.01,meteohub,2013-06-04 14:19:00,
2013-06-04 09:24:00,59.7,52.5,30.08,SW,232,0.0,6.0,77,0.01,,,0.01,meteohub,2013-06-04 14:24:00,
2013-06-04 09:29:00,59.7,52.5,30.07,SW,226,0.0,6.0,77,0.01,,,0.01,meteohub,2013-06-04 14:29:00,
2013-06-04 09:34:00,60.1,52.9,30.08,SW,226,2.0,6.0,77,0.01,,,0.01,meteohub,2013-06-04 14:34:00,
2013-06-04 09:39:00,60.3,52.7,30.07,SSW,211,2.0,6.0,76,0.01,,,0.01,meteohub,2013-06-04 14:39:00,
2013-06-04 09:44:00,60.4,52.9,30.07,SSW,201,6.0,10.0,76,0.01,,,0.01,meteohub,2013-06-04 14:44:00,
2013-06-04 09:49:00,60.8,52.9,30.07,SW,228,3.0,10.0,75,0.01,,,0.01,meteohub,2013-06-04 14:49:00,
2013-06-04 09:54:00,61.0,53.1,30.08,SSW,205,2.0,11.0,75,0.00,,,0.01,meteohub,2013-06-04 14:54:00,
2013-06-04 09:59:00,61.0,53.1,30.07,South,191,6.0,11.0,75,0.00,,,0.01,meteohub,2013-06-04 14:59:00,
2013-06-04 10:04:00,61.0,53.4,30.08,SSW,211,3.0,11.0,76,0.00,,,0.01,meteohub,2013-06-04 15:04:00,
2013-06-04 10:09:00,61.0,53.1,30.08,WSW,254,8.0,11.0,75,0.00,,,0.01,meteohub,2013-06-04 15:09:00,
2013-06-04 10:14:00,61.2,53.2,30.08,WSW,250,1.0,17.0,75,0.00,,,0.01,meteohub,2013-06-04 15:14:00,
2013-06-04 10:19:00,61.2,53.2,30.08,WSW,238,4.0,17.0,75,0.00,,,0.01,meteohub,2013-06-04 15:19:00,
2013-06-04 10:24:00,61.2,53.2,30.09,SW,236,5.0,17.0,75,0.00,,,0.01,meteohub,2013-06-04 15:24:00,
2013-06-04 10:29:00,61.0,52.7,30.09,SW,219,4.0,11.0,74,0.00,,,0.01,meteohub,2013-06-04 15:29:00,
2013-06-04 10:34:00,61.0,52.7,30.09,WSW,252,4.0,10.0,74,0.00,,,0.01,meteohub,2013-06-04 15:34:00,
2013-06-04 10:39:00,61.0,52.7,30.09,WSW,244,4.0,13.0,74,0.00,,,0.01,meteohub,2013-06-04 15:39:00,
2013-06-04 10:44:00,61.0,52.7,30.09,SW,235,2.0,13.0,74,0.00,,,0.01,meteohub,2013-06-04 15:44:00,
2013-06-04 10:49:00,61.0,52.7,30.10,WSW,248,3.0,13.0,74,0.00,,,0.01,meteohub,2013-06-04 15:49:00,
2013-06-04 10:54:00,61.2,52.9,30.10,WSW,252,0.0,12.0,74,0.00,,,0.01,meteohub,2013-06-04 15:54:00,
2013-06-04 10:59:00,61.2,52.9,30.11,WSW,250,3.0,12.0,74,0.00,,,0.01,meteohub,2013-06-04 15:59:00,
2013-06-04 11:04:00,61.2,52.9,30.10,WSW,249,0.0,12.0,74,0.00,,,0.01,meteohub,2013-06-04 16:04:00,
2013-06-04 11:09:00,61.3,52.7,30.11,WSW,242,2.0,9.0,73,0.00,,,0.01,meteohub,2013-06-04 16:09:00,
2013-06-04 11:14:00,61.3,53.1,30.11,WSW,237,5.0,9.0,74,0.00,,,0.01,meteohub,2013-06-04 16:14:00,
2013-06-04 11:19:00,61.3,52.7,30.11,SW,221,1.0,9.0,73,0.00,,,0.01,meteohub,2013-06-04 16:19:00,
2013-06-04 11:24:00,61.3,52.7,30.12,SW,221,4.0,9.0,73,0.00,,,0.01,meteohub,2013-06-04 16:24:00,
2013-06-04 11:29:00,61.3,52.7,30.12,SW,221,0.0,7.0,73,0.00,,,0.01,meteohub,2013-06-04 16:29:00,
2013-06-04 11:34:00,61.3,53.1,30.12,SW,219,4.0,7.0,74,0.00,,,0.01,meteohub,2013-06-04 16:34:00,
2013-06-04 11:39:00,61.5,53.2,30.12,SW,227,3.0,7.0,74,0.00,,,0.01,meteohub,2013-06-04 16:39:00,
2013-06-04 11:44:00,61.9,53.1,30.12,SW,226,3.0,7.0,73,0.00,,,0.01,meteohub,2013-06-04 16:44:00,
2013-06-04 11:49:00,61.9,53.1,30.12,WSW,240,6.0,7.0,73,0.00,,,0.01,meteohub,2013-06-04 16:49:00,
2013-06-04 11:55:00,62.1,53.2,30.12,SSW,207,0.0,7.0,73,0.00,,,0.01,meteohub,2013-06-04 16:55:00,
2013-06-04 12:00:00,62.1,53.2,30.12,SW,227,4.0,9.0,73,0.00,,,0.01,meteohub,2013-06-04 17:00:00,
2013-06-04 12:05:00,61.9,53.1,30.12,SW,229,2.0,11.0,73,0.00,,,0.01,meteohub,2013-06-04 17:05:00,
2013-06-04 12:10:00,61.7,53.2,30.11,SW,218,2.0,11.0,74,0.00,,,0.01,meteohub,2013-06-04 17:10:00,
2013-06-04 12:15:00,61.7,53.2,30.11,SSW,196,3.0,11.0,74,0.00,,,0.01,meteohub,2013-06-04 17:15:00,
2013-06-04 12:20:00,62.1,53.6,30.11,SW,217,3.0,11.0,74,0.00,,,0.01,meteohub,2013-06-04 17:20:00,
2013-06-04 12:25:00,62.2,53.1,30.11,SW,229,6.0,11.0,72,0.00,,,0.01,meteohub,2013-06-04 17:25:00,
2013-06-04 12:30:00,62.1,52.9,30.11,SSW,206,1.0,11.0,72,0.00,,,0.01,meteohub,2013-06-04 17:30:00,
2013-06-04 12:35:00,62.1,52.9,30.11,SW,233,2.0,13.0,72,0.00,,,0.01,meteohub,2013-06-04 17:35:00,
2013-06-04 12:40:00,62.1,52.9,30.11,SW,232,6.0,13.0,72,0.00,,,0.01,meteohub,2013-06-04 17:40:00,
2013-06-04 12:45:00,61.9,52.7,30.11,SSW,196,10.0,12.0,72,0.00,,,0.01,meteohub,2013-06-04 17:45:00,
2013-06-04 12:50:00,61.5,52.3,30.11,SSW,211,4.0,13.0,72,0.00,,,0.01,meteohub,2013-06-04 17:50:00,
2013-06-04 12:55:00,61.3,52.7,30.11,SW,225,3.0,14.0,73,0.00,,,0.01,meteohub,2013-06-04 17:55:00,
2013-06-04 13:00:00,61.2,52.9,30.11,SW,225,7.0,14.0,74,0.00,,,0.01,meteohub,2013-06-04 18:00:00,
2013-06-04 13:05:00,61.0,52.7,30.11,SW,221,5.0,14.0,74,0.00,,,0.01,meteohub,2013-06-04 18:05:00,
2013-06-04 13:10:00,61.0,53.1,30.11,SSW,195,12.0,14.0,75,0.00,,,0.01,meteohub,2013-06-04 18:10:00,
2013-06-04 13:15:00,60.8,52.9,30.11,WSW,238,8.0,13.0,75,0.00,,,0.01,meteohub,2013-06-04 18:15:00,
2013-06-04 13:20:00,60.6,53.1,30.10,SW,233,5.0,16.0,76,0.00,,,0.01,meteohub,2013-06-04 18:20:00,
2013-06-04 13:25:00,60.6,53.4,30.11,WSW,253,5.0,16.0,77,0.00,,,0.01,meteohub,2013-06-04 18:25:00,
2013-06-04 13:30:00,60.4,52.9,30.10,WSW,240,5.0,14.0,76,0.00,,,0.01,meteohub,2013-06-04 18:30:00,
2013-06-04 13:35:00,60.3,53.1,30.10,WSW,248,6.0,14.0,77,0.00,,,0.01,meteohub,2013-06-04 18:35:00,
2013-06-04 13:40:00,60.1,53.2,30.10,WSW,241,6.0,16.0,78,0.00,,,0.01,meteohub,2013-06-04 18:40:00,
2013-06-04 13:45:00,60.1,53.2,30.10,WSW,242,6.0,16.0,78,0.00,,,0.01,meteohub,2013-06-04 18:45:00,
2013-06-04 13:50:00,60.3,53.4,30.10,WSW,241,5.0,12.0,78,0.00,,,0.01,meteohub,2013-06-04 18:50:00,
2013-06-04 13:55:00,60.3,53.4,30.10,SW,234,5.0,11.0,78,0.00,,,0.01,meteohub,2013-06-04 18:55:00,
2013-06-04 14:00:00,60.1,52.9,30.10,WSW,239,4.0,11.0,77,0.00,,,0.01,meteohub,2013-06-04 19:00:00,
2013-06-04 14:05:00,60.1,53.2,30.10,SW,227,4.0,16.0,78,0.00,,,0.01,meteohub,2013-06-04 19:05:00,
2013-06-04 14:10:00,60.3,53.4,30.10,SE,140,6.0,16.0,78,0.00,,,0.01,meteohub,2013-06-04 19:10:00,
2013-06-04 14:15:00,60.3,53.1,30.10,SSW,213,3.0,14.0,77,0.00,,,0.01,meteohub,2013-06-04 19:15:00,
2013-06-04 14:20:00,60.1,52.9,30.10,SSW,201,10.0,14.0,77,0.00,,,0.01,meteohub,2013-06-04 19:20:00,
2013-06-04 14:25:00,60.1,52.9,30.10,WSW,240,3.0,14.0,77,0.00,,,0.01,meteohub,2013-06-04 19:25:00,
2013-06-04 14:30:00,59.9,53.1,30.10,WSW,244,4.0,13.0,78,0.00,,,0.01,meteohub,2013-06-04 19:30:00,
2013-06-04 14:35:00,59.7,52.9,30.11,SW,230,3.0,14.0,78,0.00,,,0.01,meteohub,2013-06-04 19:35:00,
2013-06-04 14:40:00,59.7,52.9,30.11,WSW,240,5.0,15.0,78,0.00,,,0.01,meteohub,2013-06-04 19:40:00,
2013-06-04 14:45:00,59.7,52.9,30.11,SW,234,5.0,15.0,78,0.00,,,0.01,meteohub,2013-06-04 19:45:00,
2013-06-04 14:50:00,59.7,52.9,30.11,WSW,244,7.0,15.0,78,0.00,,,0.01,meteohub,2013-06-04 19:50:00,
2013-06-04 14:55:00,59.9,53.1,30.10,SSW,213,4.0,15.0,78,0.00,,,0.01,meteohub,2013-06-04 19:55:00,
2013-06-04 15:00:00,59.7,52.9,30.11,SW,232,11.0,19.0,78,0.00,,,0.01,meteohub,2013-06-04 20:00:00,
2013-06-04 15:05:00,59.5,53.4,30.10,WSW,246,4.0,19.0,80,0.00,,,0.01,meteohub,2013-06-04 20:05:00,
2013-06-04 15:10:00,59.5,53.1,30.10,SSW,213,12.0,19.0,79,0.00,,,0.01,meteohub,2013-06-04 20:10:00,
2013-06-04 15:15:00,59.7,52.9,30.10,SW,231,3.0,15.0,78,0.00,,,0.01,meteohub,2013-06-04 20:15:00,
2013-06-04 15:20:00,59.7,52.5,30.10,West,267,9.0,15.0,77,0.00,,,0.01,meteohub,2013-06-04 20:20:00,
2013-06-04 15:25:00,59.7,52.5,30.10,SSW,210,11.0,14.0,77,0.00,,,0.01,meteohub,2013-06-04 20:25:00,
2013-06-04 15:30:00,59.7,52.5,30.10,WSW,242,4.0,14.0,77,0.00,,,0.01,meteohub,2013-06-04 20:30:00,
2013-06-04 15:35:00,59.9,52.3,30.10,SW,219,5.0,14.0,76,0.00,,,0.01,meteohub,2013-06-04 20:35:00,
2013-06-04 15:40:00,59.9,52.0,30.10,SSW,213,5.0,14.0,75,0.00,,,0.01,meteohub,2013-06-04 20:40:00,
2013-06-04 15:45:00,59.7,51.8,30.10,SSW,206,2.0,15.0,75,0.00,,,0.01,meteohub,2013-06-04 20:45:00,
2013-06-04 15:50:00,59.7,51.4,30.10,SSW,198,9.0,15.0,74,0.00,,,0.01,meteohub,2013-06-04 20:50:00,
2013-06-04 15:55:00,59.7,51.4,30.10,SSW,204,0.0,15.0,74,0.00,,,0.01,meteohub,2013-06-04 20:55:00,
2013-06-04 16:00:00,59.9,51.3,30.10,SSW,194,4.0,15.0,73,0.00,,,0.01,meteohub,2013-06-04 21:00:00,
2013-06-04 16:06:00,59.9,51.3,30.10,SSW,196,9.0,15.0,73,0.00,,,0.01,meteohub,2013-06-04 21:06:00,
2013-06-04 16:11:00,60.1,51.1,30.09,SW,227,3.0,13.0,72,0.00,,,0.01,meteohub,2013-06-04 21:11:00,
2013-06-04 16:16:00,60.3,51.3,30.09,SSW,194,9.0,12.0,72,0.00,,,0.01,meteohub,2013-06-04 21:16:00,
2013-06-04 16:21:00,60.3,51.3,30.09,SSW,196,5.0,17.0,72,0.00,,,0.01,meteohub,2013-06-04 21:21:00,
2013-06-04 16:26:00,60.4,51.4,30.09,SSW,207,2.0,17.0,72,0.00,,,0.01,meteohub,2013-06-04 21:26:00,
2013-06-04 16:31:00,60.4,51.4,30.09,SSW,207,5.0,17.0,72,0.00,,,0.01,meteohub,2013-06-04 21:31:00,
2013-06-04 16:36:00,60.4,51.4,30.09,South,184,10.0,14.0,72,0.00,,,0.01,meteohub,2013-06-04 21:36:00,
2013-06-04 16:41:00,60.4,51.4,30.09,SW,223,9.0,14.0,72,0.00,,,0.01,meteohub,2013-06-04 21:41:00,
2013-06-04 16:46:00,60.3,51.3,30.10,SSW,206,0.0,14.0,72,0.00,,,0.01,meteohub,2013-06-04 21:46:00,
2013-06-04 16:51:00,60.3,51.3,30.10,SSW,194,11.0,14.0,72,0.00,,,0.01,meteohub,2013-06-04 21:51:00,
2013-06-04 16:56:00,60.1,51.1,30.10,SSW,205,6.0,14.0,72,0.00,,,0.01,meteohub,2013-06-04 21:56:00,
2013-06-04 17:01:00,60.1,51.4,30.10,SSW,202,11.0,15.0,73,0.00,,,0.01,meteohub,2013-06-04 22:01:00,
2013-06-04 17:06:00,60.1,51.8,30.11,WSW,250,6.0,16.0,74,0.00,,,0.01,meteohub,2013-06-04 22:06:00,
2013-06-04 17:12:00,59.9,51.3,30.10,SSW,210,6.0,16.0,73,0.00,,,0.01,meteohub,2013-06-04 22:12:00,
2013-06-04 17:17:00,59.7,51.1,30.11,SSW,206,5.0,16.0,73,0.00,,,0.01,meteohub,2013-06-04 22:17:00,
2013-06-04 17:22:00,59.9,51.6,30.10,SSW,203,4.0,16.0,74,0.00,,,0.01,meteohub,2013-06-04 22:22:00,
2013-06-04 17:27:00,59.7,51.8,30.11,SW,220,3.0,16.0,75,0.00,,,0.01,meteohub,2013-06-04 22:27:00,
2013-06-04 17:32:00,59.9,52.0,30.10,SSW,213,3.0,16.0,75,0.00,,,0.01,meteohub,2013-06-04 22:32:00,
2013-06-04 17:37:00,59.9,52.0,30.11,SSW,208,6.0,15.0,75,0.00,,,0.01,meteohub,2013-06-04 22:37:00,
2013-06-04 17:42:00,59.9,52.3,30.11,SW,216,6.0,11.0,76,0.00,,,0.01,meteohub,2013-06-04 22:42:00,
2013-06-04 17:47:00,59.7,52.2,30.11,SSW,204,9.0,12.0,76,0.00,,,0.01,meteohub,2013-06-04 22:47:00,
2013-06-04 17:52:00,59.5,52.3,30.11,South,187,4.0,13.0,77,0.00,,,0.01,meteohub,2013-06-04 22:52:00,
2013-06-04 17:57:00,59.5,52.3,30.11,SW,226,4.0,13.0,77,0.00,,,0.01,meteohub,2013-06-04 22:57:00,
2013-06-04 18:02:00,59.4,52.2,30.10,South,188,5.0,13.0,77,0.00,,,0.01,meteohub,2013-06-04 23:02:00,
2013-06-04 18:07:00,59.2,52.3,30.10,SW,229,4.0,12.0,78,0.00,,,0.01,meteohub,2013-06-04 23:07:00,
2013-06-04 18:12:00,59.0,52.2,30.10,SSW,213,7.0,12.0,78,0.00,,,0.01,meteohub,2013-06-04 23:12:00,
2013-06-04 18:17:00,59.0,52.2,30.10,SSW,198,6.0,12.0,78,0.00,,,0.01,meteohub,2013-06-04 23:17:00,
2013-06-04 18:22:00,59.0,52.5,30.11,SSW,211,5.0,11.0,79,0.00,,,0.01,meteohub,2013-06-04 23:22:00,
2013-06-04 18:27:00,58.8,52.7,30.11,South,191,3.0,11.0,80,0.00,,,0.01,meteohub,2013-06-04 23:27:00,
2013-06-04 18:32:00,58.5,52.7,30.11,SSW,199,3.0,11.0,81,0.00,,,0.01,meteohub,2013-06-04 23:32:00,
2013-06-04 18:37:00,58.3,52.9,30.10,SSW,198,0.0,13.0,82,0.00,,,0.01,meteohub,2013-06-04 23:37:00,
2013-06-04 18:42:00,57.9,52.7,30.11,SSW,202,2.0,13.0,83,0.00,,,0.01,meteohub,2013-06-04 23:42:00,
2013-06-04 18:47:00,57.7,52.7,30.10,SSW,202,0.0,13.0,83,0.00,,,0.01,meteohub,2013-06-04 23:47:00,
2013-06-04 18:52:00,57.6,52.7,30.10,SSW,212,4.0,10.0,84,0.00,,,0.01,meteohub,2013-06-04 23:52:00,
2013-06-04 18:57:00,57.4,52.9,30.10,SSW,213,0.0,12.0,85,0.00,,,0.01,meteohub,2013-06-04 23:57:00,
2013-06-04 19:02:00,57.2,52.7,30.11,SSW,211,3.0,12.0,85,0.00,,,0.01,meteohub,2013-06-05 00:02:00,
2013-06-04 19:07:00,57.0,52.9,30.11,SSW,202,0.0,10.0,86,0.00,,,0.01,meteohub,2013-06-05 00:07:00,
2013-06-04 19:12:00,56.8,52.7,30.11,SSW,210,2.0,9.0,86,0.00,,,0.01,meteohub,2013-06-05 00:12:00,
2013-06-04 19:17:00,56.7,52.9,30.11,SSW,202,3.0,9.0,87,0.00,,,0.01,meteohub,2013-06-05 00:17:00,
2013-06-04 19:22:00,56.7,52.9,30.10,SSW,203,3.0,11.0,87,0.00,,,0.01,meteohub,2013-06-05 00:22:00,
2013-06-04 19:27:00,56.7,52.9,30.10,SW,227,1.0,11.0,87,0.00,,,0.01,meteohub,2013-06-05 00:27:00,
2013-06-04 19:32:00,56.5,52.7,30.10,SSW,201,12.0,12.0,87,0.00,,,0.01,meteohub,2013-06-05 00:32:00,
2013-06-04 19:37:00,56.5,52.9,30.10,SSW,213,3.0,12.0,88,0.00,,,0.01,meteohub,2013-06-05 00:37:00,
2013-06-04 19:42:00,56.5,52.9,30.11,SW,220,2.0,12.0,88,0.00,,,0.01,meteohub,2013-06-05 00:42:00,
2013-06-04 19:47:00,56.3,52.5,30.11,SW,223,5.0,12.0,87,0.00,,,0.01,meteohub,2013-06-05 00:47:00,
2013-06-04 19:52:00,56.1,52.3,30.11,SW,224,3.0,10.0,87,0.00,,,0.01,meteohub,2013-06-05 00:52:00,
2013-06-04 19:57:00,56.1,52.3,30.11,SW,219,2.0,10.0,87,0.00,,,0.01,meteohub,2013-06-05 00:57:00,
2013-06-04 20:02:00,56.1,52.0,30.11,SW,220,2.0,10.0,86,0.00,,,0.01,meteohub,2013-06-05 01:02:00,
2013-06-04 20:07:00,56.1,52.0,30.11,SW,219,2.0,6.0,86,0.00,,,0.01,meteohub,2013-06-05 01:07:00,
2013-06-04 20:12:00,56.1,52.0,30.11,SW,219,2.0,6.0,86,0.00,,,0.01,meteohub,2013-06-05 01:12:00,
2013-06-04 20:17:00,56.1,52.0,30.11,SW,219,5.0,6.0,86,0.00,,,0.01,meteohub,2013-06-05 01:17:00,
2013-06-04 20:22:00,56.1,51.6,30.11,SSW,200,0.0,6.0,85,0.00,,,0.01,meteohub,2013-06-05 01:22:00,
2013-06-04 20:27:00,56.1,51.6,30.11,SSW,201,5.0,10.0,85,0.00,,,0.01,meteohub,2013-06-05 01:27:00,
2013-06-04 20:32:00,56.1,51.6,30.12,SSW,204,0.0,10.0,85,0.00,,,0.01,meteohub,2013-06-05 01:32:00,
2013-06-04 20:37:00,56.1,51.6,30.12,SSW,204,0.0,8.0,85,0.00,,,0.01,meteohub,2013-06-05 01:37:00,
2013-06-04 20:42:00,56.1,51.6,30.12,SSW,204,5.0,8.0,85,0.00,,,0.01,meteohub,2013-06-05 01:42:00,
2013-06-04 20:47:00,56.1,51.4,30.12,SSW,203,2.0,7.0,84,0.00,,,0.01,meteohub,2013-06-05 01:47:00,
2013-06-04 20:52:00,56.1,51.4,30.12,SSW,205,4.0,7.0,84,0.00,,,0.01,meteohub,2013-06-05 01:52:00,
2013-06-04 20:57:00,56.1,51.1,30.12,SSW,207,0.0,7.0,83,0.00,,,0.01,meteohub,2013-06-05 01:57:00,
2013-06-04 21:02:00,56.1,51.1,30.13,SSW,207,0.0,6.0,83,0.00,,,0.01,meteohub,2013-06-05 02:02:00,
2013-06-04 21:07:00,56.1,51.1,30.12,SSW,206,0.0,5.0,83,0.00,,,0.01,meteohub,2013-06-05 02:07:00,
2013-06-04 21:13:00,56.1,51.1,30.12,SSW,207,4.0,5.0,83,0.00,,,0.01,meteohub,2013-06-05 02:13:00,
2013-06-04 21:18:00,55.9,50.9,30.12,SSW,206,3.0,5.0,83,0.00,,,0.01,meteohub,2013-06-05 02:18:00,
2013-06-04 21:23:00,55.9,50.9,30.12,SSW,207,3.0,5.0,83,0.00,,,0.01,meteohub,2013-06-05 02:23:00,
2013-06-04 21:28:00,55.9,50.9,30.12,SSW,212,3.0,6.0,83,0.00,,,0.01,meteohub,2013-06-05 02:28:00,
2013-06-04 21:32:00,55.9,50.9,30.12,SSW,211,0.0,7.0,83,0.00,,,0.01,meteohub,2013-06-05 02:32:00,
2013-06-04 21:38:00,55.9,50.9,30.12,SSW,211,6.0,7.0,83,0.00,,,0.01,meteohub,2013-06-05 02:38:00,
2013-06-04 21:43:00,55.9,50.9,30.12,SSW,212,0.0,7.0,83,0.00,,,0.01,meteohub,2013-06-05 02:43:00,
2013-06-04 21:48:00,55.9,50.9,30.12,SSW,211,1.0,7.0,83,0.00,,,0.01,meteohub,2013-06-05 02:48:00,
2013-06-04 21:53:00,55.9,50.9,30.12,SSW,212,0.0,7.0,83,0.00,,,0.01,meteohub,2013-06-05 02:53:00,
2013-06-04 21:58:00,55.8,50.7,30.12,SW,223,0.0,7.0,83,0.00,,,0.01,meteohub,2013-06-05 02:58:00,
2013-06-04 22:03:00,55.8,50.7,30.12,SW,223,3.0,7.0,83,0.00,,,0.01,meteohub,2013-06-05 03:03:00,
2013-06-04 22:08:00,55.8,50.7,30.13,SW,229,1.0,7.0,83,0.00,,,0.01,meteohub,2013-06-05 03:08:00,
2013-06-04 22:13:00,55.8,50.4,30.13,SSW,206,3.0,7.0,82,0.00,,,0.01,meteohub,2013-06-05 03:13:00,
2013-06-04 22:18:00,55.8,50.4,30.13,SSW,213,3.0,7.0,82,0.00,,,0.01,meteohub,2013-06-05 03:18:00,
2013-06-04 22:23:00,55.8,50.0,30.13,SSW,213,6.0,10.0,81,0.00,,,0.01,meteohub,2013-06-05 03:23:00,
2013-06-04 22:28:00,55.6,49.8,30.12,SSW,210,4.0,11.0,81,0.00,,,0.01,meteohub,2013-06-05 03:28:00,
2013-06-04 22:33:00,55.6,49.8,30.13,SSW,211,3.0,12.0,81,0.00,,,0.01,meteohub,2013-06-05 03:33:00,
2013-06-04 22:38:00,55.6,49.8,30.12,SSW,211,2.0,12.0,81,0.00,,,0.01,meteohub,2013-06-05 03:38:00,
2013-06-04 22:43:00,55.6,49.5,30.12,SSW,207,5.0,12.0,80,0.00,,,0.01,meteohub,2013-06-05 03:43:00,
2013-06-04 22:48:00,55.6,49.5,30.12,SW,217,4.0,10.0,80,0.00,,,0.01,meteohub,2013-06-05 03:48:00,
2013-06-04 22:53:00,55.4,49.6,30.12,SSW,209,1.0,11.0,81,0.00,,,0.01,meteohub,2013-06-05 03:53:00,
2013-06-04 22:58:00,55.4,49.6,30.12,SSW,210,3.0,11.0,81,0.00,,,0.01,meteohub,2013-06-05 03:58:00,
2013-06-04 23:01:00,55.4,49.6,30.12,SSW,200,7.0,10.0,81,0.00,,,0.01,meteohub,2013-06-05 04:01:00,
2013-06-04 23:02:00,55.4,49.6,30.12,SW,218,1.0,10.0,81,0.00,,,0.01,meteohub,2013-06-05 04:02:00,
2013-06-04 23:07:00,55.4,49.6,30.12,SW,227,1.0,10.0,81,0.00,,,0.01,meteohub,2013-06-05 04:07:00,
2013-06-04 23:12:00,55.2,49.5,30.12,SSW,207,0.0,10.0,81,0.00,,,0.01,meteohub,2013-06-05 04:12:00,
2013-06-04 23:17:00,55.2,49.5,30.12,SSW,200,0.0,9.0,81,0.00,,,0.01,meteohub,2013-06-05 04:17:00,
2013-06-04 23:22:00,55.2,49.5,30.12,SSW,195,3.0,7.0,81,0.00,,,0.01,meteohub,2013-06-05 04:22:00,
2013-06-04 23:27:00,55.2,49.5,30.12,SSW,200,3.0,10.0,81,0.00,,,0.01,meteohub,2013-06-05 04:27:00,
2013-06-04 23:32:00,55.2,49.5,30.11,SSW,202,0.0,10.0,81,0.00,,,0.01,meteohub,2013-06-05 04:32:00,
2013-06-04 23:37:00,55.2,49.5,30.11,SSW,203,1.0,10.0,81,0.00,,,0.01,meteohub,2013-06-05 04:37:00,
2013-06-04 23:42:00,55.2,49.5,30.11,SSW,203,0.0,10.0,81,0.00,,,0.01,meteohub,2013-06-05 04:42:00,
2013-06-04 23:47:00,55.0,49.3,30.11,SSW,203,1.0,10.0,81,0.00,,,0.01,meteohub,2013-06-05 04:47:00,
2013-06-04 23:52:00,55.0,49.3,30.11,SSW,209,3.0,9.0,81,0.00,,,0.01,meteohub,2013-06-05 04:52:00,
2013-06-04 23:57:00,55.0,49.3,30.11,SSW,209,0.0,8.0,81,0.00,,,0.01,meteohub,2013-06-05 04:57:00,